Home   Weather   Warsaw   Past weeks

Flag for Poland Past Weather in Warsaw, Poland — Yesterday and Last 2 Weeks

Now
36 °F

Light rain. Passing clouds.


Feels Like: 26 °F
Forecast: 28 / 34 °F
Wind: 15 mph from Northwest

Location: Warsaw Okecie Airport

Current Time: Dec 3, 2016 at 1:34:12 am

Latest Report: Dec 3, 2016 at 1:00 am


Visibility: N/A

Pressure: 29.89 "Hg

Humidity: 81%

Dew Point: 30 °F

Location of WarsawLocation

Past Weather in Warsaw — Graph

°F

Warsaw Temperature Yesterday

Maximum temperature yesterday: 36 °F (at 4:00 pm)
Minimum temperature yesterday: 32 °F (at 12:00 am)
Average temperature yesterday: 33 °F

High & Low Weather Summary for the Past Weeks

 TemperatureHumidityPressure
High55 °F (Nov 21, 12:00 pm)100% (Nov 24, 4:00 am)30.33 "Hg (Nov 24, 4:00 am)
Low21 °F (Nov 28, 9:00 pm)53% (Nov 26, 1:00 pm)29.27 "Hg (Dec 2, 2:00 am)
Average38 °F88%29.99 "Hg
* Reported Nov 18 12:00 am — Dec 3 12:30 am, Warsaw, Weather by CustomWeather, © 2016

Note: Actual official high and low records may vary slightly from our data, if they occured in-between our weather recording intervals... More about our weather records

Advertising

Warsaw Weather History for the Previous 24 Hours

Scroll right to see more
 ConditionsComfort  
Time TempWeatherWind HumidityBarometerVisibility
12:30 am
Sat, Dec 3
36 °FLight rain. Passing clouds.10 mph87%29.89 "HgN/A
12:00 am36 °FPassing clouds.13 mph81%29.89 "HgN/A
11:30 pm
Fri, Dec 2
36 °FPassing clouds.10 mph87%29.89 "HgN/A
11:00 pm36 °FPartly cloudy.10 mph87%29.86 "HgN/A
10:30 pm36 °FLight rain. Partly cloudy.9 mph87%29.86 "HgN/A
10:00 pm36 °FLight rain. Passing clouds.10 mph87%29.86 "HgN/A
9:30 pm36 °FPassing clouds.9 mph87%29.86 "HgN/A
9:00 pm36 °FPassing clouds.9 mph81%29.86 "HgN/A
8:30 pm36 °FPassing clouds.10 mph81%29.86 "HgN/A
8:00 pm36 °FPartly cloudy.12 mph81%29.86 "HgN/A
7:30 pm36 °FPassing clouds.9 mph81%29.86 "HgN/A
7:00 pm36 °FPassing clouds.10 mph81%29.86 "HgN/A
6:30 pm36 °FPassing clouds.10 mph81%29.83 "HgN/A
6:00 pm36 °FPassing clouds.12 mph81%29.83 "HgN/A
5:30 pm36 °FPassing clouds.13 mph81%29.83 "HgN/A
5:00 pm36 °FPassing clouds.14 mph81%29.83 "HgN/A
4:30 pm36 °FPartly cloudy.10 mph87%29.83 "HgN/A
4:00 pm36 °FPassing clouds.10 mph87%29.83 "HgN/A
3:30 pm34 °FPassing clouds.9 mph93%29.80 "HgN/A
3:00 pm34 °FScattered clouds.9 mph93%29.80 "HgN/A
2:30 pm34 °FLow clouds.12 mph87%29.80 "HgN/A
2:00 pm34 °FLow clouds.8 mph87%29.80 "HgN/A
1:30 pm32 °FLow clouds.9 mph93%29.80 "HgN/A
1:00 pm32 °FLow clouds.12 mph87%29.77 "HgN/A
12:30 pm32 °FPartly sunny.12 mph87%29.77 "HgN/A
12:00 pm32 °FPartly sunny.14 mph87%29.77 "HgN/A
11:30 am32 °FPartly sunny.14 mph87%29.74 "HgN/A
11:00 am32 °FPartly sunny.14 mph87%29.71 "HgN/A
10:30 am32 °FPartly sunny.13 mph87%29.71 "HgN/A
10:00 am32 °FPartly sunny.12 mph93%29.68 "HgN/A
9:30 am32 °FPartly sunny.13 mph93%29.62 "HgN/A
9:00 am32 °FPartly sunny.16 mph93%29.62 "HgN/A
8:30 am32 °FPartly sunny.14 mph93%29.56 "HgN/A
8:00 am32 °FPartly sunny.15 mph93%29.53 "HgN/A
7:30 am32 °FLight snow. Ice fog.14 mph100%29.50 "Hg2 mi
7:00 am32 °FLight snow. Ice fog.15 mph100%29.45 "Hg3 mi
6:30 am32 °FSnow. Ice fog.13 mph100%29.42 "Hg2 mi
6:00 am32 °FSnow. Passing clouds.13 mph100%29.39 "Hg1 mi
5:30 am32 °FSnow. Passing clouds.10 mph100%29.36 "Hg2 mi
5:00 am32 °FLight rain. Passing clouds.6 mph100%29.33 "HgN/A
4:30 am32 °FLight snow. Passing clouds.9 mph100%29.30 "Hg5 mi
4:00 am34 °FLight rain. Passing clouds.12 mph93%29.30 "Hg4 mi
3:30 am34 °FLight rain. Passing clouds.10 mph100%29.27 "HgN/A
3:00 am32 °FPassing clouds.2 mph100%29.27 "HgN/A
2:30 am32 °FPassing clouds.2 mph100%29.27 "HgN/A
2:00 am32 °FPassing clouds.2 mph100%29.27 "HgN/A
1:30 am32 °FLight snow. Partly cloudy.5 mph100%29.30 "Hg5 mi
1:00 am32 °FLight snow. Passing clouds.5 mph100%29.30 "Hg5 mi
Weather by CustomWeather, © 2016

See weather overviewHow to use our weather pages